Weather in Udskoye

Russia / Khabarovsk Krai     54°30′28″N   134°24′31″E
temp.,
°C
wind,
m/s
gust,
m/s
humid.,
%
clouds,
%
prec.,
mm/h
press.,
hPa
HPBL,
m
25 january, mon
mon2501:00−30sw39910 0.0 1039262
04:00−32sw35920 0.0 1040116
07:00−33sw35920 0.0 1040130
10:00−33sw36900 0.0 1040204
13:00−27wsw37800 0.0 1039375
16:00−26wsw36810 0.0 1038350
19:00−30sw23910 0.0 104043
22:00−31sw22910 0.0 103822
26 january, tue
tue2601:00−32wsw118948 0.0 103719
04:00−30nne118474 0.0 103419
07:00−29ne2283100 0.0 103249
10:00−28ne3880100 0.0 1029267
13:00−24ne51080100 0.0 1026551
16:00−24ne61185100 0.0 1023622
19:00−24ne61296100 0.4 1023724
22:00−24ne61295100 0.9 1023754
27 january, wed
wed2701:00−24ne51196100 0.6 1022761
04:00−24ne41095100 0.9 1022753
07:00−24ne41194100 0.1 1022717
10:00−24ne41192100 0.3 1022860
13:00−22ne5989100 0.1 10211065
16:00−22ene4888100 0.3 10211007
19:00−23ne2398100 0.1 1022125
22:00−24ne2498100 0.3 1022204
28 january, thu
thu2801:00−25ene2398100 0.3 1022187
04:00−26ene1299100 0.5 102266
07:00−26ene1199100 0.1 102222
10:00−25ene0098100 0.4 102377
13:00−23nw1188100 0.2 1023436
16:00−23w1289100 0.3 1022395
19:00−24wsw1196100 0.1 102325
22:00−25w1296100 0.1 102338
29 january, fri
fri2901:00−26w1295100 0.0 102336
04:00−28wsw2297100 0.1 102254
07:00−29wsw2397100 0.0 102292
10:00−29wsw2397100 0.1 1023140
13:00−26wsw258996 0.0 1022428
16:00−25wsw258892 0.0 1021415
19:00−29sw22947 0.0 102422
22:00−31sw229511 0.0 102519